Location: Asheville, NC
(35.6000°N, 82.5500°W)
Time: 00:26:22
(UTC-04:00)

NO-84 - Pass Details

Date: 18 March 2018
Orbit: 334 x 555 km, 55.0° (Epoch: 14 June)

Event Time Altitude Azimuth Distance (km) Brightness Sun altitude
Rises 20:08:19 0° 189° (S) 2,647 ? -6.5°
Reaches altitude 10° 20:10:51 10° 173° (S) 1,793 ? -7.0°
Maximum altitude 20:13:59 21° 123° (ESE) 1,253 ? -7.7°
Drops below altitude 10° 20:17:13 10° 73° (ENE) 1,848 ? -8.3°
Enters shadow 20:17:40 - 69° (ENE) 1,988 ? -8.4°
